Search for airport 
image banner adimage banner ad
image banner ad

SSKX - Fazenda São Luíz do Matão Airport

Located in Carneirinho, Brazil

ICAO - SSKX, IATA -

Data provided by Airmate  

General information

Coordinates: S11°25'19" W37°19'25"
Elevation is 9 feet MSL.
Magnetic variation is -23° East
View others Airports in Sergipe

Operational data

Open for public use
Current time UTC:
Current local time:
Weather at : SBAR - Santa Maria ( 56 km )
METAR: SBAR 241700Z 12011KT 9999 VCSH SCT026 FEW027TCU BKN100 29/22 Q1012
TAF: TAF SBAR 240900Z 2412/2512 13010KT 7000 SCT017 TX30/2415Z TN22/2509Z PROB40 2412/2415 4000 SHRA BKN012 FEW026TCU BECMG 2423/2501 11007KT SCT017 PROB40 2510/2512 08007KT 5000 SHRA SCT017 FEW025TCU RMK PGU
View NOTAMs / SUP AIP / TFR affecting this airport [VIEW]
Communications frequencies: [VIEW]

Runways:

RWY identifierQFULength (ft)Width (ft)SurfaceLDA (ft)
13164059DIRT
31164059DIRT

Airport contact information

Address: Carneirinho Brazil

Satellite view of SSKX